Regional Weather Roundup
Issued by NWS

Home | Current Version | Previous Version | Graphics & Text | Print | Product List | Glossary On
Versions: 1 2 3 4 5 6 7 8 9 10 11 12 13 14 15 16 17 18 19 20 21 22 23 24 25 26 27 28 29 30 31 32 33 34 35 36 37 38 39 40 41 42 43 44 45 46 47 48
000
ASUS45 KSLC 241910
RWRUT

UTAH REGIONAL WEATHER ROUNDUP
NATIONAL WEATHER SERVICE SALT LAKE CITY UT
1200 PM MST SAT JAN 24 2015

UTZ001>011-023>025-242000-

NORTHERN UTAH

CITY           SKY/WX    TMP DP  RH WIND       PRES   REMARKS
BRIGHAM CITY   CLOUDY    32  25  76 CALM      30.51F
HILL AFB       CLOUDY    34  16  48 E6        30.49F WCI  29
LOGAN          CLOUDY    28  21  75 CALM      30.49F
OGDEN          CLOUDY    35  21  56 CALM      30.50F
PROVO AIRPORT  MOSUNNY   30  21  69 VRB5      30.51F WCI  25
SALT LAKE CITY MOSUNNY   37  21  52 CALM      30.51F
VERNAL         CLOUDY    30  17  58 S3        30.38F
WENDOVER       SUNNY     34  25  69 CALM      30.51F
HEBER CITY     SUNNY     25  18  74 CALM      30.48F
WEST JORDAN    SUNNY     36  21  55 SE7       30.50F WCI  30

$$

UTZ012>022-026-027-242000-

SOUTHERN/CENTRAL UTAH

CITY           SKY/WX    TMP DP  RH WIND       PRES   REMARKS
BLANDING       MOSUNNY   40  13  33 W5        30.43F
BRYCE CANYON   SUNNY     37  19  48 NW5       30.41F WCI  33
CEDAR CITY     SUNNY     38  18  44 VRB5      30.44F WCI  34
DELTA          SUNNY     36  21  53 CALM      30.50F
MILFORD        SUNNY     39  23  52 N15       30.47F WCI  31
MOAB/CYNLANDS  SUNNY     39  15  37 E3        30.40F
PRICE          PTSUNNY   35  18  49 SE5       30.37F WCI  31
ST GEORGE      CLEAR     48  21  34 SW5       30.41F
KANAB          SUNNY     50  19  29 E13       30.40F

$$

REGIONAL REPORTS     COLORADO/ARIZONA

CITY           SKY/WX    TMP DP  RH WIND       PRES   REMARKS
CRAIG, CO      CLOUDY    21  12  68 SW3       30.35F
GRAND JUNCTION PTSUNNY   35  11  36 SE8       30.38F WCI  29
RIFLE          CLOUDY    29  11  47 N3        30.41F
MONTROSE       CLOUDY    33  10  38 CALM      30.41F
CORTEZ         SUNNY     40  14  34 VRB3      30.35F
PAGE, AZ       NOT AVBL
GRAND CANYON   SUNNY     44  10  25 NE21      30.38R
KINGMAN        SUNNY     57  15  19 N16       30.28F
FLAGSTAFF      SUNNY     42   9  25 NE16      30.34F

$$

REGIONAL REPORTS    NEVADA/IDAHO/WYOMING

CITY           SKY/WX    TMP DP  RH WIND       PRES   REMARKS
LAS VEGAS, NV  SUNNY     61  22  22 N12G23    30.31S
ELY            SUNNY     39  24  55 N3        30.48F
ELKO           PTSUNNY   39  29  67 SW6       30.50F WCI  35
POCATELLO, ID  CLOUDY    29  28  96 N5        30.48R FOG     WCI  24
BURLEY         CLOUDY    36  29  75 NW5       30.44F WCI  32
EVANSTON, WY   CLOUDY    29  21  72 SW12      30.40F WCI  19
ROCK SPRINGS   CLOUDY    33  18  53 SW24G38   30.28F WCI  20

$$


USA.gov is the U.S. government's official web portal to all federal, state and local government web resources and services.